Time,TemperatureF,DewpointF,PressureIn,WindDirection,WindDirectionDegrees,WindSpeedMPH,WindSpeedGustMPH,Humidity,HourlyPrecipIn,Conditions,Clouds,dailyrainin,SoftwareType,DateUTC
2013-06-19 00:09:00,66.5,59.1,29.93,SW,214,0.0,0.0,77,0.00,,,0.00,Wunderground v.1.15,2013-06-19 05:09:00,
2013-06-19 00:19:00,66.8,59.4,29.93,SE,133,0.0,0.0,77,0.00,,,0.00,Wunderground v.1.15,2013-06-19 05:19:00,
2013-06-19 00:29:00,67.3,59.5,29.93,East,89,1.0,1.0,76,0.00,,,0.00,Wunderground v.1.15,2013-06-19 05:29:00,
2013-06-19 00:39:00,66.8,59.7,29.94,East,89,0.0,1.0,78,0.00,,,0.00,Wunderground v.1.15,2013-06-19 05:39:00,
2013-06-19 00:44:00,66.2,59.1,29.94,East,87,1.0,1.0,78,0.00,,,0.00,Wunderground v.1.15,2013-06-19 05:44:00,
2013-06-19 00:54:00,65.2,59.2,29.94,East,87,0.0,0.0,81,0.00,,,0.00,Wunderground v.1.15,2013-06-19 05:54:00,
2013-06-19 00:59:00,64.8,59.2,29.94,East,87,0.0,0.0,82,0.00,,,0.00,Wunderground v.1.15,2013-06-19 05:59:00,
2013-06-19 01:09:00,64.9,59.3,29.94,East,87,0.0,0.0,82,0.00,,,0.00,Wunderground v.1.15,2013-06-19 06:09:00,
2013-06-19 01:19:00,64.8,59.2,29.93,SE,134,1.0,1.0,82,0.00,,,0.00,Wunderground v.1.15,2013-06-19 06:19:00,
2013-06-19 01:24:00,64.8,59.2,29.93,SE,134,1.0,1.0,82,0.00,,,0.00,Wunderground v.1.15,2013-06-19 06:24:00,
2013-06-19 01:34:00,63.9,59.0,29.93,SE,134,0.0,1.0,84,0.00,,,0.00,Wunderground v.1.15,2013-06-19 06:34:00,
2013-06-19 01:44:00,63.9,59.3,29.92,SE,134,1.0,1.0,85,0.00,,,0.00,Wunderground v.1.15,2013-06-19 06:44:00,
2013-06-19 01:54:00,63.9,59.3,29.93,SE,134,0.0,1.0,85,0.00,,,0.00,Wunderground v.1.15,2013-06-19 06:54:00,
2013-06-19 02:00:00,63.8,59.2,29.93,SE,134,0.0,0.0,85,0.00,,,0.00,Wunderground v.1.15,2013-06-19 07:00:00,
2013-06-19 02:09:00,63.8,59.2,29.92,SE,134,0.0,0.0,85,0.00,,,0.00,Wunderground v.1.15,2013-06-19 07:09:00,
2013-06-19 02:14:00,64.1,59.5,29.92,East,80,1.0,3.0,85,0.00,,,0.00,Wunderground v.1.15,2013-06-19 07:14:00,
2013-06-19 02:24:00,64.6,59.3,29.92,SE,136,1.0,1.0,83,0.00,,,0.00,Wunderground v.1.15,2013-06-19 07:24:00,
2013-06-19 02:35:00,63.7,58.8,29.92,SE,137,0.0,0.0,84,0.00,,,0.00,Wunderground v.1.15,2013-06-19 07:35:00,
2013-06-19 02:44:00,63.7,59.4,29.92,SE,136,0.0,0.0,86,0.00,,,0.00,Wunderground v.1.15,2013-06-19 07:44:00,
2013-06-19 02:49:00,64.3,59.7,29.91,East,94,0.0,0.0,85,0.00,,,0.00,Wunderground v.1.15,2013-06-19 07:49:00,
2013-06-19 03:00:00,64.5,59.9,29.92,East,94,0.0,1.0,85,0.00,,,0.00,Wunderground v.1.15,2013-06-19 08:00:00,
2013-06-19 03:09:00,64.8,60.2,29.91,ENE,70,1.0,2.0,85,0.00,,,0.00,Wunderground v.1.15,2013-06-19 08:09:00,
2013-06-19 03:14:00,65.0,60.7,29.91,East,89,2.0,3.0,86,0.00,,,0.00,Wunderground v.1.15,2013-06-19 08:14:00,
2013-06-19 03:24:00,64.6,60.3,29.92,SE,131,1.0,1.0,86,0.00,,,0.00,Wunderground v.1.15,2013-06-19 08:24:00,
2013-06-19 03:34:00,64.4,60.4,29.92,SE,132,1.0,1.0,87,0.00,,,0.00,Wunderground v.1.15,2013-06-19 08:34:00,
2013-06-19 03:44:00,63.1,58.8,29.92,SE,132,0.0,1.0,86,0.00,,,0.00,Wunderground v.1.15,2013-06-19 08:44:00,
2013-06-19 03:54:00,62.0,59.0,29.92,SSW,200,1.0,2.0,90,0.00,,,0.00,Wunderground v.1.15,2013-06-19 08:54:00,
2013-06-19 04:00:00,61.6,58.9,29.93,South,177,2.0,2.0,91,0.00,,,0.00,Wunderground v.1.15,2013-06-19 09:00:00,
2013-06-19 04:09:00,61.7,59.4,29.93,SSE,161,1.0,2.0,92,0.00,,,0.00,Wunderground v.1.15,2013-06-19 09:09:00,
2013-06-19 04:14:00,62.0,60.0,29.92,SSE,153,1.0,1.0,93,0.00,,,0.00,Wunderground v.1.15,2013-06-19 09:14:00,
2013-06-19 04:24:00,62.4,60.0,29.92,SE,131,1.0,2.0,92,0.00,,,0.00,Wunderground v.1.15,2013-06-19 09:24:00,
2013-06-19 04:34:00,63.0,60.6,29.92,East,100,2.0,2.0,92,0.00,,,0.00,Wunderground v.1.15,2013-06-19 09:34:00,
2013-06-19 04:44:00,63.3,60.6,29.92,SE,133,2.0,2.0,91,0.00,,,0.00,Wunderground v.1.15,2013-06-19 09:44:00,
2013-06-19 04:54:00,63.5,60.5,29.92,East,101,2.0,2.0,90,0.00,,,0.00,Wunderground v.1.15,2013-06-19 09:54:00,
2013-06-19 05:00:00,63.4,60.4,29.92,SE,132,1.0,1.0,90,0.00,,,0.00,Wunderground v.1.15,2013-06-19 10:00:00,
2013-06-19 05:09:00,63.2,60.2,29.92,ESE,107,1.0,1.0,90,0.00,,,0.00,Wunderground v.1.15,2013-06-19 10:09:00,
2013-06-19 05:14:00,63.3,60.6,29.92,ESE,122,1.0,1.0,91,0.00,,,0.00,Wunderground v.1.15,2013-06-19 10:14:00,
2013-06-19 05:24:00,63.5,60.5,29.92,ESE,118,1.0,1.0,90,0.00,,,0.00,Wunderground v.1.15,2013-06-19 10:24:00,
2013-06-19 05:29:00,63.6,60.6,29.93,East,83,1.0,2.0,90,0.00,,,0.00,Wunderground v.1.15,2013-06-19 10:29:00,
2013-06-19 05:39:00,63.7,60.7,29.92,SE,127,1.0,2.0,90,0.00,,,0.00,Wunderground v.1.15,2013-06-19 10:39:00,
2013-06-19 05:44:00,63.6,60.6,29.92,ESE,122,1.0,1.0,90,0.00,,,0.00,Wunderground v.1.15,2013-06-19 10:44:00,
2013-06-19 05:54:00,63.5,60.5,29.92,SE,135,1.0,1.0,90,0.00,,,0.00,Wunderground v.1.15,2013-06-19 10:54:00,
2013-06-19 06:00:00,63.3,60.3,29.92,SSE,149,1.0,1.0,90,0.00,,,0.00,Wunderground v.1.15,2013-06-19 11:00:00,
2013-06-19 06:09:00,63.0,60.3,29.92,SSE,148,1.0,1.0,91,0.00,,,0.00,Wunderground v.1.15,2013-06-19 11:09:00,
2013-06-19 06:19:00,63.1,60.7,29.92,SE,132,2.0,2.0,92,0.00,,,0.00,Wunderground v.1.15,2013-06-19 11:19:00,
2013-06-19 06:29:00,63.4,61.0,29.93,SE,132,1.0,1.0,92,0.00,,,0.00,Wunderground v.1.15,2013-06-19 11:29:00,
2013-06-19 06:34:00,63.6,61.2,29.93,SE,143,1.0,2.0,92,0.00,,,0.00,Wunderground v.1.15,2013-06-19 11:34:00,
2013-06-19 06:44:00,64.1,61.7,29.93,SSE,152,1.0,1.0,92,0.00,,,0.00,Wunderground v.1.15,2013-06-19 11:44:00,
2013-06-19 06:54:00,64.6,61.9,29.93,ESE,117,1.0,2.0,91,0.00,,,0.00,Wunderground v.1.15,2013-06-19 11:54:00,
2013-06-19 07:00:00,64.7,62.0,29.94,ESE,107,2.0,2.0,91,0.00,,,0.00,Wunderground v.1.15,2013-06-19 12:00:00,
2013-06-19 07:09:00,64.9,62.2,29.94,SE,127,1.0,1.0,91,0.00,,,0.00,Wunderground v.1.15,2013-06-19 12:09:00,
2013-06-19 07:14:00,65.2,62.5,29.94,SSE,153,0.0,2.0,91,0.00,,,0.00,Wunderground v.1.15,2013-06-19 12:14:00,
2013-06-19 07:24:00,65.6,62.9,29.95,SSE,153,1.0,2.0,91,0.00,,,0.00,Wunderground v.1.15,2013-06-19 12:24:00,
2013-06-19 07:34:00,66.1,63.4,29.95,SE,136,1.0,2.0,91,0.00,,,0.00,Wunderground v.1.15,2013-06-19 12:34:00,
2013-06-19 07:45:00,67.5,64.1,29.94,SE,132,2.0,3.0,89,0.00,,,0.00,Wunderground v.1.15,2013-06-19 12:45:00,
2013-06-19 07:54:00,68.4,64.4,29.94,SSE,148,4.0,6.0,87,0.00,,,0.00,Wunderground v.1.15,2013-06-19 12:54:00,
2013-06-19 08:00:00,69.0,65.0,29.94,SSE,162,5.0,5.0,87,0.00,,,0.00,Wunderground v.1.15,2013-06-19 13:00:00,
2013-06-19 08:09:00,69.7,64.6,29.93,ESE,112,6.0,9.0,84,0.00,,,0.00,Wunderground v.1.15,2013-06-19 13:09:00,
2013-06-19 08:15:00,69.9,64.5,29.94,SSE,148,6.0,9.0,83,0.00,,,0.00,Wunderground v.1.15,2013-06-19 13:15:00,
2013-06-19 08:20:00,70.2,64.8,29.94,SE,131,6.0,6.0,83,0.00,,,0.00,Wunderground v.1.15,2013-06-19 13:20:00,
2013-06-19 08:25:00,70.3,64.5,29.94,SE,124,6.0,6.0,82,0.00,,,0.00,Wunderground v.1.15,2013-06-19 13:25:00,
2013-06-19 08:30:00,70.8,65.4,29.94,SE,129,5.0,5.0,83,0.00,,,0.00,Wunderground v.1.15,2013-06-19 13:30:00,
2013-06-19 08:35:00,71.2,65.1,29.94,SSE,148,6.0,6.0,81,0.00,,,0.00,Wunderground v.1.15,2013-06-19 13:35:00,
2013-06-19 08:45:00,72.3,65.1,29.93,SE,141,5.0,6.0,78,0.00,,,0.00,Wunderground v.1.15,2013-06-19 13:45:00,
2013-06-19 08:50:00,72.7,64.7,29.93,SE,143,6.0,6.0,76,0.00,,,0.00,Wunderground v.1.15,2013-06-19 13:50:00,
2013-06-19 09:00:00,73.5,64.3,29.93,SSE,160,7.0,9.0,73,0.00,,,0.00,Wunderground v.1.15,2013-06-19 14:00:00,
2013-06-19 09:10:00,74.6,65.0,29.93,SSE,150,7.0,8.0,72,0.00,,,0.00,Wunderground v.1.15,2013-06-19 14:10:00,
2013-06-19 09:20:00,75.4,64.5,29.93,SE,145,7.0,13.0,69,0.00,,,0.00,Wunderground v.1.15,2013-06-19 14:20:00,
2013-06-19 09:30:00,75.5,65.0,29.93,SSE,147,9.0,9.0,70,0.00,,,0.00,Wunderground v.1.15,2013-06-19 14:30:00,
2013-06-19 09:40:00,76.4,66.3,29.93,SSE,148,8.0,9.0,71,0.00,,,0.00,Wunderground v.1.15,2013-06-19 14:40:00,
2013-06-19 09:50:00,76.8,64.6,29.93,SSE,168,10.0,12.0,66,0.00,,,0.00,Wunderground v.1.15,2013-06-19 14:50:00,
2013-06-19 10:00:00,76.7,65.3,29.93,SE,143,11.0,11.0,68,0.00,,,0.00,Wunderground v.1.15,2013-06-19 15:00:00,
2013-06-19 10:10:00,77.2,65.8,29.92,SSE,161,10.0,11.0,68,0.00,,,0.00,Wunderground v.1.15,2013-06-19 15:10:00,
2013-06-19 10:20:00,77.1,64.9,29.92,South,177,9.0,11.0,66,0.00,,,0.00,Wunderground v.1.15,2013-06-19 15:20:00,
2013-06-19 10:30:00,76.4,65.9,29.92,SE,142,9.0,10.0,70,0.00,,,0.00,Wunderground v.1.15,2013-06-19 15:30:00,
2013-06-19 10:40:00,77.1,66.1,29.92,South,174,10.0,11.0,69,0.00,,,0.00,Wunderground v.1.15,2013-06-19 15:40:00,
2013-06-19 10:50:00,77.4,66.0,29.92,SSE,147,12.0,12.0,68,0.00,,,0.00,Wunderground v.1.15,2013-06-19 15:50:00,
2013-06-19 11:00:00,78.2,66.8,29.92,SE,139,11.0,13.0,68,0.00,,,0.00,Wunderground v.1.15,2013-06-19 16:00:00,
2013-06-19 11:10:00,78.3,66.0,29.92,SE,144,12.0,12.0,66,0.00,,,0.00,Wunderground v.1.15,2013-06-19 16:10:00,
2013-06-19 11:20:00,78.5,66.6,29.92,SSE,158,12.0,12.0,67,0.00,,,0.00,Wunderground v.1.15,2013-06-19 16:20:00,
2013-06-19 11:30:00,79.4,67.5,29.91,SSE,154,13.0,13.0,67,0.00,,,0.00,Wunderground v.1.15,2013-06-19 16:30:00,
2013-06-19 11:40:00,79.5,67.6,29.91,SSE,161,12.0,13.0,67,0.00,,,0.00,Wunderground v.1.15,2013-06-19 16:40:00,
2013-06-19 11:50:00,79.8,67.0,29.91,South,174,11.0,11.0,65,0.00,,,0.00,Wunderground v.1.15,2013-06-19 16:50:00,
2013-06-19 12:00:00,79.9,68.0,29.92,SE,131,13.0,13.0,67,0.00,,,0.00,Wunderground v.1.15,2013-06-19 17:00:00,
2013-06-19 12:10:00,80.1,67.7,29.91,SSE,167,11.0,11.0,66,0.00,,,0.00,Wunderground v.1.15,2013-06-19 17:10:00,
2013-06-19 12:20:00,80.8,68.4,29.90,SSW,193,10.0,10.0,66,0.00,,,0.00,Wunderground v.1.15,2013-06-19 17:20:00,
2013-06-19 12:30:00,81.3,68.4,29.90,SE,141,11.0,12.0,65,0.00,,,0.00,Wunderground v.1.15,2013-06-19 17:30:00,
2013-06-19 12:40:00,81.4,67.6,29.90,SSE,166,10.0,10.0,63,0.00,,,0.00,Wunderground v.1.15,2013-06-19 17:40:00,
2013-06-19 12:50:00,81.6,67.8,29.90,South,176,10.0,10.0,63,0.00,,,0.00,Wunderground v.1.15,2013-06-19 17:50:00,
2013-06-19 13:00:00,82.3,68.9,29.89,South,173,9.0,9.0,64,0.00,,,0.00,Wunderground v.1.15,2013-06-19 18:00:00,
2013-06-19 13:10:00,82.7,68.4,29.89,South,174,9.0,9.0,62,0.00,,,0.00,Wunderground v.1.15,2013-06-19 18:10:00,
2013-06-19 13:15:00,82.7,68.8,29.89,SSE,160,8.0,9.0,63,0.00,,,0.00,Wunderground v.1.15,2013-06-19 18:15:00,
2013-06-19 13:25:00,82.9,68.1,29.89,SSE,160,7.0,8.0,61,0.00,,,0.00,Wunderground v.1.15,2013-06-19 18:25:00,
2013-06-19 13:35:00,82.9,66.6,29.88,SW,218,11.0,12.0,58,0.00,,,0.00,Wunderground v.1.15,2013-06-19 18:35:00,
2013-06-19 13:45:00,82.2,66.9,29.88,SSE,156,9.0,12.0,60,0.00,,,0.00,Wunderground v.1.15,2013-06-19 18:45:00,
2013-06-19 13:50:00,82.2,67.9,29.88,SSE,166,8.0,8.0,62,0.00,,,0.00,Wunderground v.1.15,2013-06-19 18:50:00,
2013-06-19 14:00:00,83.1,67.3,29.87,SSE,155,8.0,9.0,59,0.00,,,0.00,Wunderground v.1.15,2013-06-19 19:00:00,
2013-06-19 14:10:00,84.5,68.6,29.87,SE,139,10.0,10.0,59,0.00,,,0.00,Wunderground v.1.15,2013-06-19 19:10:00,
2013-06-19 14:15:00,85.2,69.3,29.87,SSE,162,9.0,11.0,59,0.00,,,0.00,Wunderground v.1.15,2013-06-19 19:15:00,
2013-06-19 14:25:00,85.8,70.3,29.87,SE,133,9.0,10.0,60,0.00,,,0.00,Wunderground v.1.15,2013-06-19 19:25:00,
2013-06-19 14:35:00,85.6,67.6,29.87,South,187,11.0,11.0,55,0.00,,,0.00,Wunderground v.1.15,2013-06-19 19:35:00,
2013-06-19 14:45:00,85.6,66.5,29.87,SSE,166,11.0,13.0,53,0.00,,,0.00,Wunderground v.1.15,2013-06-19 19:45:00,
2013-06-19 14:55:00,85.0,69.6,29.87,SSE,154,10.0,14.0,60,0.00,,,0.00,Wunderground v.1.15,2013-06-19 19:55:00,
2013-06-19 15:00:00,85.3,69.3,29.87,SSE,167,10.0,13.0,59,0.00,,,0.00,Wunderground v.1.15,2013-06-19 20:00:00,
2013-06-19 15:10:00,85.7,67.7,29.87,South,172,11.0,11.0,55,0.00,,,0.00,Wunderground v.1.15,2013-06-19 20:10:00,
2013-06-19 15:20:00,86.2,68.1,29.86,SE,137,10.0,10.0,55,0.00,,,0.00,Wunderground v.1.15,2013-06-19 20:20:00,
2013-06-19 15:30:00,86.0,68.0,29.86,SSE,150,10.0,10.0,55,0.00,,,0.00,Wunderground v.1.15,2013-06-19 20:30:00,
2013-06-19 15:40:00,85.4,68.4,29.86,SSE,166,11.0,11.0,57,0.00,,,0.00,Wunderground v.1.15,2013-06-19 20:40:00,
2013-06-19 15:50:00,85.1,67.6,29.86,SSE,163,10.0,10.0,56,0.00,,,0.00,Wunderground v.1.15,2013-06-19 20:50:00,
2013-06-19 16:00:00,85.6,67.6,29.86,SE,142,11.0,11.0,55,0.00,,,0.00,Wunderground v.1.15,2013-06-19 21:00:00,
2013-06-19 16:15:00,85.9,68.9,29.85,SSE,167,11.0,12.0,57,0.00,,,0.00,Wunderground v.1.15,2013-06-19 21:15:00,
2013-06-19 16:25:00,84.6,66.1,29.85,SE,143,10.0,11.0,54,0.00,,,0.00,Wunderground v.1.15,2013-06-19 21:25:00,
2013-06-19 16:35:00,84.6,66.1,29.85,SSW,198,9.0,13.0,54,0.00,,,0.00,Wunderground v.1.15,2013-06-19 21:35:00,
2013-06-19 16:40:00,84.0,67.1,29.85,SSE,158,11.0,13.0,57,0.00,,,0.00,Wunderground v.1.15,2013-06-19 21:40:00,
2013-06-19 16:50:00,84.0,66.6,29.84,SSE,163,11.0,14.0,56,0.00,,,0.00,Wunderground v.1.15,2013-06-19 21:50:00,
2013-06-19 17:00:00,85.2,67.2,29.84,SSW,210,13.0,13.0,55,0.00,,,0.00,Wunderground v.1.15,2013-06-19 22:00:00,
2013-06-19 17:10:00,85.6,66.5,29.84,SSE,155,12.0,12.0,53,0.00,,,0.00,Wunderground v.1.15,2013-06-19 22:10:00,
2013-06-19 17:15:00,85.8,67.8,29.84,SSW,201,12.0,12.0,55,0.00,,,0.00,Wunderground v.1.15,2013-06-19 22:15:00,
2013-06-19 17:25:00,84.8,66.8,29.83,SSE,160,11.0,15.0,55,0.00,,,0.00,Wunderground v.1.15,2013-06-19 22:25:00,
2013-06-19 17:35:00,85.5,64.7,29.83,SE,141,12.0,14.0,50,0.00,,,0.00,Wunderground v.1.15,2013-06-19 22:35:00,
2013-06-19 17:45:00,85.5,64.7,29.83,SSE,166,13.0,13.0,50,0.00,,,0.00,Wunderground v.1.15,2013-06-19 22:45:00,
2013-06-19 17:55:00,85.6,64.2,29.82,SSE,150,12.0,16.0,49,0.00,,,0.00,Wunderground v.1.15,2013-06-19 22:55:00,
2013-06-19 18:00:00,85.6,64.8,29.82,South,187,12.0,13.0,50,0.00,,,0.00,Wunderground v.1.15,2013-06-19 23:00:00,
2013-06-19 18:10:00,85.7,64.3,29.82,South,169,11.0,13.0,49,0.00,,,0.00,Wunderground v.1.15,2013-06-19 23:10:00,
2013-06-19 18:15:00,85.6,64.8,29.82,SSE,160,11.0,13.0,50,0.00,,,0.00,Wunderground v.1.15,2013-06-19 23:15:00,
2013-06-19 18:25:00,85.6,64.8,29.82,SSE,166,10.0,12.0,50,0.00,,,0.00,Wunderground v.1.15,2013-06-19 23:25:00,
2013-06-19 18:35:00,85.3,64.6,29.82,South,174,11.0,14.0,50,0.00,,,0.00,Wunderground v.1.15,2013-06-19 23:35:00,
2013-06-19 18:45:00,85.1,64.9,29.82,South,174,11.0,19.0,51,0.00,,,0.00,Wunderground v.1.15,2013-06-19 23:45:00,
2013-06-19 18:55:00,84.7,65.1,29.82,South,172,11.0,11.0,52,0.00,,,0.00,Wunderground v.1.15,2013-06-19 23:55:00,
2013-06-19 19:00:00,84.7,65.1,29.82,South,187,10.0,11.0,52,0.00,,,0.00,Wunderground v.1.15,2013-06-20 00:00:00,
2013-06-19 19:10:00,84.4,64.9,29.82,South,169,11.0,11.0,52,0.00,,,0.00,Wunderground v.1.15,2013-06-20 00:10:00,
2013-06-19 19:20:00,84.2,66.3,29.82,SSW,204,10.0,10.0,55,0.00,,,0.00,Wunderground v.1.15,2013-06-20 00:20:00,
2013-06-19 19:30:00,83.9,64.9,29.82,South,188,9.0,10.0,53,0.00,,,0.00,Wunderground v.1.15,2013-06-20 00:30:00,
2013-06-19 19:35:00,83.7,65.3,29.82,SSE,166,10.0,10.0,54,0.00,,,0.00,Wunderground v.1.15,2013-06-20 00:35:00,
2013-06-19 19:45:00,83.5,65.6,29.82,SSE,165,9.0,10.0,55,0.00,,,0.00,Wunderground v.1.15,2013-06-20 00:45:00,
2013-06-19 19:55:00,83.2,65.4,29.82,SSE,156,8.0,9.0,55,0.00,,,0.00,Wunderground v.1.15,2013-06-20 00:55:00,
2013-06-19 20:00:00,83.0,65.7,29.82,SSE,163,8.0,8.0,56,0.00,,,0.00,Wunderground v.1.15,2013-06-20 01:00:00,
2013-06-19 20:10:00,82.4,64.1,29.82,SSE,149,8.0,9.0,54,0.00,,,0.00,Wunderground v.1.15,2013-06-20 01:10:00,
2013-06-19 20:20:00,81.9,64.1,29.82,SSE,164,7.0,7.0,55,0.00,,,0.00,Wunderground v.1.15,2013-06-20 01:20:00,
2013-06-19 20:30:00,80.7,64.1,29.82,SSE,153,6.0,6.0,57,0.00,,,0.00,Wunderground v.1.15,2013-06-20 01:30:00,
2013-06-19 20:40:00,79.5,64.4,29.82,SSE,153,5.0,5.0,60,0.00,,,0.00,Wunderground v.1.15,2013-06-20 01:40:00,
2013-06-19 20:50:00,78.7,64.1,29.82,SE,139,5.0,5.0,61,0.00,,,0.00,Wunderground v.1.15,2013-06-20 01:50:00,
2013-06-19 21:00:00,77.7,64.1,29.82,SSE,148,4.0,5.0,63,0.00,,,0.00,Wunderground v.1.15,2013-06-20 02:00:00,
2013-06-19 21:10:00,77.0,64.8,29.82,SSE,150,3.0,4.0,66,0.00,,,0.00,Wunderground v.1.15,2013-06-20 02:10:00,
2013-06-19 21:20:00,76.3,65.0,29.83,SSE,160,3.0,4.0,68,0.00,,,0.00,Wunderground v.1.15,2013-06-20 02:20:00,
2013-06-19 21:30:00,75.7,64.8,29.83,SE,137,3.0,3.0,69,0.00,,,0.00,Wunderground v.1.15,2013-06-20 02:30:00,
2013-06-19 21:40:00,75.2,65.1,29.84,SSE,153,3.0,3.0,71,0.00,,,0.00,Wunderground v.1.15,2013-06-20 02:40:00,
2013-06-19 21:50:00,75.2,65.1,29.84,SE,141,4.0,4.0,71,0.00,,,0.00,Wunderground v.1.15,2013-06-20 02:50:00,
2013-06-19 22:00:00,74.5,65.3,29.84,SE,142,2.0,3.0,73,0.00,,,0.00,Wunderground v.1.15,2013-06-20 03:00:00,
2013-06-19 22:10:00,74.1,65.3,29.84,SSE,158,3.0,4.0,74,0.00,,,0.00,Wunderground v.1.15,2013-06-20 03:10:00,
2013-06-19 22:20:00,74.2,65.4,29.85,SE,132,4.0,4.0,74,0.00,,,0.00,Wunderground v.1.15,2013-06-20 03:20:00,
2013-06-19 22:30:00,74.4,65.2,29.86,South,173,4.0,4.0,73,0.00,,,0.00,Wunderground v.1.15,2013-06-20 03:30:00,
2013-06-19 22:40:00,74.0,65.2,29.86,SSE,150,4.0,5.0,74,0.00,,,0.00,Wunderground v.1.15,2013-06-20 03:40:00,
2013-06-19 22:50:00,73.6,65.2,29.86,SSE,152,4.0,4.0,75,0.00,,,0.00,Wunderground v.1.15,2013-06-20 03:50:00,
2013-06-19 23:00:00,73.0,65.0,29.86,SSE,155,2.0,2.0,76,0.00,,,0.00,Wunderground v.1.15,2013-06-20 04:00:00,
2013-06-19 23:05:00,72.6,65.0,29.87,SE,129,2.0,2.0,77,0.00,,,0.00,Wunderground v.1.15,2013-06-20 04:05:00,
2013-06-19 23:10:00,72.3,64.7,29.87,SSE,148,2.0,5.0,77,0.00,,,0.00,Wunderground v.1.15,2013-06-20 04:10:00,
2013-06-19 23:15:00,72.3,64.7,29.87,SSE,155,3.0,5.0,77,0.00,,,0.00,Wunderground v.1.15,2013-06-20 04:15:00,
2013-06-19 23:20:00,72.2,65.0,29.87,SSE,150,3.0,4.0,78,0.00,,,0.00,Wunderground v.1.15,2013-06-20 04:20:00,
2013-06-19 23:25:00,72.3,64.7,29.87,SSE,148,4.0,4.0,77,0.00,,,0.00,Wunderground v.1.15,2013-06-20 04:25:00,
2013-06-19 23:30:00,72.3,65.1,29.87,SSE,147,4.0,4.0,78,0.00,,,0.00,Wunderground v.1.15,2013-06-20 04:30:00,
2013-06-19 23:35:00,72.1,64.9,29.87,SE,124,4.0,4.0,78,0.00,,,0.00,Wunderground v.1.15,2013-06-20 04:35:00,
2013-06-19 23:40:00,71.8,64.6,29.87,SSE,156,3.0,3.0,78,0.00,,,0.00,Wunderground v.1.15,2013-06-20 04:40:00,
2013-06-19 23:50:00,71.1,64.6,29.87,SSE,150,2.0,2.0,80,0.00,,,0.00,Wunderground v.1.15,2013-06-20 04:50:00,